www.pogodaiklimat.ru

Погода и климат >> Архив погоды >> Мали >> Nara


ПОГОДА в Nara

  • Прогноз погоды в Nara
  • Монитор погоды в Nara
  • Климат города

АРХИВ ПОГОДЫ в Nara

Время (UTC), дата Ветер
(напр.,м/с)
 
Видим.   Явления Облачность Т
(С)
Тd
(С)
f
(%)
Тe
(С)
Тes
(С)
Комфортность P
(гПа)
Po
(гПа)
Тmin
(С)
Tmax
(С)
R
(мм)
R24
(мм)
S
(см)
06 8.08 штиль 0 10 км 9/0
[Ac lent Ci sp]
+23.5 +22.7 95 +31 +31 очень
душно
1012.8 982.9 +23.5 3
09 8.08 штиль 0 10 км 6/0
[Ac lent Ci sp]
+25.8 +23.0 85 +34 +42 очень
душно
1014.2 984.3
12 8.08 ЮЗ 1 10 км 6/3 900 м
[Sc Ci sp]
+30.0 +23.4 68 +41 +57 опасность
перегрева
1013.4 983.6
15 8.08 штиль 0 10 км 8/4 900 м
[Sc Ci sp]
+31.9 +22.6 58 +42 +52 опасность
перегрева
1010.9 981.3
18 8.08 штиль 0 10 км 8/4 900 м
[Cb cap Ci sp]
+31.2 +22.9 61 +41 +42 опасность
перегрева
1010.5 980.9 +33.0
21 8.08 штиль 0 10 км 4/0
[Ci sp]
+28.6 +23.6 74 +39 +39 очень
душно
1012.7 983.0
00 9.08 ЮЗ 1 10 км 5/0
[Ci sp]
+27.0 +23.4 81 +37 +37 очень
душно
1013.0 983.3
03 9.08 ЮЗ 1 10 км 6/0
[Ac lent Ci sp]
+26.2 +23.0 83 +35 +35 очень
душно
1011.9 982.3
06 9.08 ЮЗ 1 10 км 9/0
[Ac lent Ci sp]
+25.0 +23.1 89 +33 +33 очень
душно
1012.3 982.7 +25.0
09 9.08 З 3 10 км 9/9 900 м
[Sc Ci sp]
+26.2 +23.0 83 +35 +36 очень
душно
1014.1 984.3
12 9.08 З 3 10 км 9/8 900 м
[Sc Ac lent]
+28.5 +21.9 67 +37 +39 очень
душно
1014.2 984.4
15 9.08 З 2 10 км 9/5 900 м
[Sc Ci sp]
+31.4 +22.8 60 +41 +47 опасность
перегрева
1011.9 982.3
18 9.08 ЮЗ 1 10 км 9/0
[Ci sp]
+30.5 +22.7 63 +40 +41 очень
душно
1010.1 980.6 +32.0
21 9.08 штиль 0 10 км зарница 9/3 900 м
[Cb cap Ac As]
+28.5 +23.0 72 +38 +38 очень
душно
1012.3 982.5
00 10.08 З 1 10 км гроза, ливневой дождь 10/4 900 м
[Cb cap Ac As]
+22.5 +22.2 98 +30 +30 очень
душно
1014.1 984.2 26
03 10.08 штиль 0 10 км в посл. час гроза 10/0
[Ac As Ci sp]
+22.6 +22.1 97 +30 +30 очень
душно
1014.6 984.8
06 10.08 штиль 0 10 км {гроза} 9/0
[Ac As Ci sp]
+22.7 +22.3 98 +31 +31 очень
душно
1010.4 980.8 +22.6 31
09 10.08 З 3 10 км 9/0
[Ac As Ci sp]
+24.2 +22.1 88 +31 +34 очень
душно
1012.5 982.7
12 10.08 З 1 10 км 9/1 900 м
[Sc Ac As Ci sp]
+26.5 +23.6 84 +36 +49 очень
душно
1013.8 983.8 0.6
15 10.08 СЗ 2 10 км 9/1 900 м
[Sc Ci sp]
+29.8 +22.9 67 +40 +50 очень
душно
1011.4 981.6
18 10.08 З 2 10 км 8/1 900 м
[Sc Ci sp]
+29.0 +22.9 70 +39 +39 очень
душно
1010.2 980.4 +31.0 0.6
21 10.08 штиль 0 10 км 9/1 900 м
[Sc Ci sp]
+26.5 +23.6 84 +36 +36 очень
душно
1012.3 982.4
00 11.08 штиль 0 10 км 8/0
[Ac lent Ci sp]
+25.2 +23.4 90 +34 +34 очень
душно
1012.7 982.8 0.6
03 11.08 ЮЗ 1 10 км 8/0
[Ac lent Ci sp]
+24.5 +23.5 94 +33 +33 очень
душно
1012.4 982.7
06 11.08 З 3 10 км 8/0
[Ci sp]
+23.8 +22.6 93 +31 +31 очень
душно
1012.6 982.8 +23.8 0.6
09 11.08 З 2 10 км 10/10 900 м
[Sc]
+25.0 +22.9 88 +33 +33 очень
душно
1013.2 983.2
12 11.08 З 2 10 км 9/6 900 м
[Sc Ci sp]
+28.6 +23.7 75 +39 +47 очень
душно
1012.3 982.5
15 11.08 З 2 10 км 9/8 900 м
[Sc Ci sp]
+30.2 +23.8 69 +42 +44 опасность
перегрева
1009.2 979.6
18 11.08 штиль 0 10 км 10/10 900 м
[Sc]
+29.4 +23.8 72 +40 +40 очень
душно
1009.4 979.7 +31.0
21 11.08 З 2 10 км зарница 9/4 900 м
[Cb cap Ci sp]
+28.0 +24.0 79 +39 +39 очень
душно
1011.2 981.4
00 12.08 штиль 0 10 км гроза, ливневой дождь 10/3 900 м
[Cb cap Ac As]
+24.4 +23.7 96 +33 +33 очень
душно
1013.3 983.5 6
03 12.08 ЮЗ 3 10 км {гроза} 9/0
[Ac As Ci sp]
+22.8 +22.3 97 +31 +31 очень
душно
1011.3 981.5
06 12.08 ЮЗ 2 10 км {гроза, дождь} 9/0
[Ac As Ci sp]
+22.3 +21.8 97 +30 +30 очень
душно
1012.6 982.7 +22.3 6
09 12.08 штиль 0 10 км 8/0
[Ac As Ci sp]
+25.0 +22.6 87 +33 +40 очень
душно
1013.1 983.2
12 12.08 штиль 0 10 км 6/3 900 м
[Sc Ci sp]
+29.5 +23.3 69 +40 +59 опасность
солнечного
удара
1012.8 983.0
15 12.08 штиль 0 10 км 8/5 900 м
[Sc Ci sp]
+32.0 +21.0 52 +39 +48 очень
душно
1010.1 980.5
18 12.08 штиль 0 10 км 8/6 900 м
[Cb cap Ci sp]
+28.8 +22.6 69 +38 +38 очень
душно
1010.0 980.3 +32.6
21 12.08 З 1 10 км 6/0
[Ci sp]
+27.2 +24.6 86 +39 +39 очень
душно
1011.1 981.2
00 13.08 ЮЗ 1 10 км 8/4 900 м
[Sc Ci sp]
+25.6 +23.7 89 +35 +35 очень
душно
1013.4 983.7
03 13.08 штиль 0 10 км 5/0
[Ci sp]
+24.5 +23.6 95 +33 +33 очень
душно
1012.5 982.9
06 13.08 З 1 10 км 4/0
[Ci sp]
+23.9 +23.4 97 +32 +32 очень
душно
1012.4 982.8 +23.9
09 13.08 ЮЗ 1 10 км 4/0
[Ci sp]
+27.0 +22.6 77 +36 +45 очень
душно
1014.9 984.1
12 13.08 штиль 0 10 км 9/5 900 м
[Cu med, cong Ci sp]
+31.0 +22.7 61 +41 +53 опасность
перегрева
1012.6 983.0
15 13.08 штиль 0 10 км 8/5 900 м
[Cu med, cong Ci sp]
+32.1 +21.1 52 +40 +48 очень
душно
1011.7 982.1
18 13.08 З 1 10 км 8/5 900 м
[Cb cap Ci sp]
+32.0 +21.9 55 +41 +41 опасность
перегрева
1010.2 980.6 +33.0
21 13.08 З 1 10 км 6/1 1200 м
[Cb cap Ci sp]
+28.7 +23.4 73 +39 +39 очень
душно
1011.6 982.0
00 14.08 штиль 0 10 км 8/0
[Ac As Ci sp]
+27.8 +24.2 81 +39 +39 очень
душно
1013.0 983.5
03 14.08 штиль 0 10 км гроза без осадков 9/6 900 м
[Cb cap Ci sp]
+22.0 +24.1 100 +29 +29 очень
душно
1012.3 982.8
06 14.08 С 1 10 км слабый дождь {гроза} 10/5 900 м
[Sc Ac As Ci sp]
+22.0 +21.7 98 +29 +29 очень
душно
1012.2 982.5 +21.8 36
09 14.08 штиль 0 10 км 9/3 900 м
[Sc Ac As Ci sp]
+22.2 +21.9 98 +29 +34 очень
душно
1013.5 983.6
12 14.08 СЗ 1 10 км 9/4 900 м
[Sc Ac As Ci sp]
+27.6 +23.1 77 +37 +46 очень
душно
1016.1 986.3 2
15 14.08 С 2 10 км 8/4 900 м
[Sc Ac As Ci sp]
+27.8 +21.5 69 +36 +41 очень
душно
1014.4 984.6
18 14.08 штиль 0 10 км 9/1 900 м
[Sc Ac lent Ci sp]
+26.8 +22.9 79 +36 +36 очень
душно
1013.5 983.4 +29.5 2
21 14.08 штиль 0 10 км 9/0
[Ac lent Ci sp]
+25.0 +23.5 91 +34 +34 очень
душно
1012.7 982.7
00 15.08 штиль 0 10 км 6/0
[Ci sp]
+24.0 +23.4 96 +32 +32 очень
душно
1014.5 984.6 2
03 15.08 штиль 0 10 км 6/0
[Ci sp]
+23.6 +23.4 99 +32 +32 очень
душно
1013.1 983.2

 

Местоположение метеостанции Nara (Мали): широта 15.17 долгота -7.28 высота над уровнем моря 265 м.

В архиве по умолчанию представлена погода в Nara за последнюю неделю. Архивные данные за месяц целиком и за предыдущие месяцы, начиная с января 2011 года, Вы можете получить, выбрав интересующий диапазон дат из раскрывающегося списка и нажав кнопку "Ввод!".


*Определитесь, кто Вы:
робот инопланетянин человек

Внимание! Время в таблицах - всемирное. Для получения местного времени необходимо прибавить поправку, которая в Nara равна 0 ч.

Смотрите также архив погоды в соседних городах и на ближайших метеорологических станциях:

Погода в Nema (Мавритания) (159 км)
Погода в Nioro Du Sahel (Мали) (222 км)
Погода в Segou (Мали) (231 км)
Погода в Aioun el Atrouss (Мавритания) (301 км)
Погода в Bamako (Мали) (302 км)
Погода в Kita (Мали) (332 км)
Погода в San (Мали) (334 км)
Погода в Mopti (Мали) (349 км)
Погода в Yelimane (Мали) (352 км)
Погода в Koutiala (Мали) (367 км)

Пояснения к столбцам:

Ветер - указаны скорость ветра в м/с - средняя за 10 мин, порывы в срок и между сроками (в фигурных скобках) и направление, откуда дует ветер: С - северный, СВ - северо-восточный, В - восточный, ЮВ - юго-восточный, Ю - южный, ЮЗ - юго-западный, З - западный, СЗ - северо-западный.
Видимость - горизонтальная дальность видимости в метрах или километрах. При видимости от 1 до 10 км при отсутствии осадков обычно наблюдается дымка, при ухудшении видимости до 1 км и менее - туман. В сухую погоду видимость может ухудшаться дымом, пылью или мглою.
Явления - указаны атмосферные явления, наблюдавшиеся в срок или в последний час перед сроком; фигурными скобками обозначены явления, наблюдавшиеся между сроками (за 1-3 часа до срока); квадратными скобками обозначены град или гололедные отложения с указанием их диаметра в мм.
Облачность - указаны через наклонную черту общая и нижняя облачность в баллах и высота нижней границы облаков в метрах; квадратными скобками обозначены формы облаков: Ci - перистые, Cs - перисто-слоистые, Cc - перисто-кучевые, Ac - высококучевые, As - высокослоистые, Sc - слоисто-кучевые, Ns - слоисто-дождевые, Cu - кучевые, Cb - кучево-дождевые. Подробнее классификацию облаков см. в Атласе облаков (PDF).
T - Температура воздуха - температура, измеренная на высоте 2 м над землей.
Td - Температура точки росы - температура, при понижении до которой содержащийся в воздухе водяной пар достигнет насыщения.
f - Относительная влажность воздуха - влажноcть воздуха, измеренная на высоте 2 м над землей.
Te - Эффективная температура - температура, которую ощущает одетый по сезону человек в тени. Характеристика душности погоды. При расчете учитывается влияние влажности воздуха и скорости ветра на теплоощущения человека.
Tes - Эффективная температура на солнце - температура, которую ощущает человек, с поправкой на солнечный нагрев. Характеристика знойности погоды. Зависит от высоты солнца над горизонтом, облачности и скорости ветра. Ночью, в пасмурную погоду, а также при ветре 12 м/с и более поправка равна нулю.
P - Атмосферное давление - приведенное к уровню моря атмосферное давление.
Po - Атмосферное давление - измеренное на уровне метеостанции атмосферное давление.
Tmin - Минимальная температура - минимум температуры воздуха на высоте 2 м над землей.
Tmax - Максимальная температура - максимум температуры воздуха на высоте 2 м над землей.
R - Количество осадков - Количество выпавших осадков за период времени, мм. При наведении курсора мыши на число - период времени, за который выпало указанное количество осадков.
R24 - Количество осадков - Количество выпавших осадков за 24 часа, мм.
S - Снежный покров - Высота снежного покрова, см. При наведении курсора мыши на число - состояние снежного покрова и степень покрытия местности в баллах.